BAW812 EGLL-EKCH

Flight info

Callsign BAW812
Flight time 1h 20m
Altitude 39000
Route BPK7F BPK Q295 SOMVA DCT MAVAS DCT ROCZO DCT DOSUR P729 TUDLO TUDLO4A
Aircraft A320/M-SDE3FGIJ1KRWXY/SB1

Departure

Time 2026-05-06 07:52
Airport London Heathrow Airport (EGLL)

Arrival

Time 2026-05-06 09:12
Airport Copenhagen Kastrup Airport (EKCH)
Time Latitude Longitude Altitude Speed Heading
2026-05-06 06:55 51.47232 -0.48046 78 ft 0 kts 269°
2026-05-06 07:03 51.47195 -0.48006 89 ft 0 kts 270°
2026-05-06 07:44 51.47195 -0.47986 86 ft 3 kts 270°
2026-05-06 07:44 51.47195 -0.47953 88 ft 3 kts 270°
2026-05-06 07:44 51.47195 -0.47923 90 ft 1 kts 270°
2026-05-06 07:45 51.47196 -0.47895 90 ft 3 kts 245°
2026-05-06 07:45 51.47206 -0.47874 87 ft 3 kts 197°
2026-05-06 07:45 51.47224 -0.47871 86 ft 3 kts 180°
2026-05-06 07:45 51.47238 -0.47871 89 ft 0 kts 180°
2026-05-06 07:48 51.47213 -0.47871 91 ft 8 kts 180°
2026-05-06 07:48 51.47142 -0.47871 86 ft 12 kts 180°
2026-05-06 07:49 51.47037 -0.47869 86 ft 18 kts 179°
2026-05-06 07:49 51.46898 -0.47868 86 ft 22 kts 180°
2026-05-06 07:49 51.46737 -0.47867 86 ft 24 kts 179°
2026-05-06 07:49 51.46654 -0.47929 86 ft 10 kts 270°
2026-05-06 07:50 51.46654 -0.48073 86 ft 14 kts 269°
2026-05-06 07:50 51.46620 -0.48209 89 ft 16 kts 195°
2026-05-06 07:50 51.46503 -0.48206 92 ft 17 kts 158°
2026-05-06 07:50 51.46480 -0.48110 88 ft 0 kts 90°
2026-05-06 07:51 51.46480 -0.48109 88 ft 1 kts 90°
2026-05-06 07:51 51.46480 -0.47890 87 ft 57 kts 90°
2026-05-06 07:51 51.46483 -0.46789 89 ft 127 kts 90°
2026-05-06 07:52 51.46512 -0.45029 439 ft 151 kts 88°
2026-05-06 07:52 51.46523 -0.44068 880 ft 152 kts 83°
2026-05-06 07:52 51.46550 -0.42320 1613 ft 158 kts 79°
2026-05-06 07:52 51.47023 -0.40401 2063 ft 177 kts 50°
2026-05-06 07:53 51.47770 -0.38971 2394 ft 197 kts 48°
2026-05-06 07:53 51.49072 -0.36489 3039 ft 232 kts 47°
2026-05-06 07:53 51.50131 -0.34465 3880 ft 244 kts 47°
2026-05-06 07:53 51.51230 -0.32353 4911 ft 251 kts 46°
2026-05-06 07:54 51.52217 -0.30326 5740 ft 263 kts 54°
2026-05-06 07:54 51.52813 -0.27777 5993 ft 276 kts 73°
2026-05-06 07:54 51.53318 -0.24976 6006 ft 270 kts 63°
2026-05-06 07:54 51.53923 -0.23163 6008 ft 266 kts 52°
2026-05-06 07:55 51.55675 -0.20445 6011 ft 259 kts 28°
2026-05-06 07:55 51.56726 -0.19593 6289 ft 261 kts 21°
2026-05-06 07:55 51.58697 -0.18219 7533 ft 264 kts 19°
2026-05-06 07:55 51.60151 -0.17478 8311 ft 267 kts 13°
2026-05-06 07:56 51.61971 -0.16657 9280 ft 272 kts 14°
2026-05-06 07:56 51.63897 -0.15781 10203 ft 279 kts 15°
2026-05-06 07:56 51.65752 -0.14937 10554 ft 302 kts 14°
2026-05-06 07:56 51.67842 -0.13979 10955 ft 321 kts 15°
2026-05-06 07:57 51.70017 -0.12962 11642 ft 329 kts 17°
2026-05-06 07:57 51.72115 -0.11326 12409 ft 337 kts 32°
2026-05-06 07:57 51.73884 -0.08727 13155 ft 345 kts 50°
2026-05-06 07:57 51.75119 -0.05434 13883 ft 352 kts 66°
2026-05-06 07:58 51.75748 -0.01583 14548 ft 360 kts 81°
2026-05-06 07:58 51.76077 0.02433 15185 ft 364 kts 82°
2026-05-06 07:58 51.76412 0.06532 15797 ft 370 kts 82°
2026-05-06 07:58 51.76749 0.10670 16486 ft 374 kts 82°
2026-05-06 07:59 51.77112 0.15138 17213 ft 378 kts 82°
2026-05-06 07:59 51.77432 0.19074 17818 ft 383 kts 81°
2026-05-06 07:59 51.77784 0.23360 18483 ft 386 kts 82°
2026-05-06 07:59 51.78137 0.27701 19078 ft 390 kts 82°
2026-05-06 08:00 51.78490 0.32060 19696 ft 394 kts 82°
2026-05-06 08:00 51.78841 0.36408 20315 ft 397 kts 82°
2026-05-06 08:00 51.79201 0.40913 20902 ft 401 kts 83°
2026-05-06 08:00 51.79553 0.45328 21480 ft 404 kts 83°
2026-05-06 08:01 51.79915 0.49859 22044 ft 408 kts 83°
2026-05-06 08:01 51.80273 0.54421 22607 ft 411 kts 83°
2026-05-06 08:01 51.80628 0.59005 23170 ft 414 kts 84°
2026-05-06 08:01 51.81051 0.63624 23664 ft 418 kts 78°
2026-05-06 08:02 51.81893 0.68156 24112 ft 423 kts 69°
2026-05-06 08:02 51.83034 0.72546 24552 ft 426 kts 68°
2026-05-06 08:02 51.84185 0.76964 25043 ft 428 kts 68°
2026-05-06 08:02 51.85338 0.81425 25488 ft 431 kts 68°
2026-05-06 08:03 51.86496 0.85929 25950 ft 434 kts 68°
2026-05-06 08:03 51.87653 0.90438 26418 ft 436 kts 68°
2026-05-06 08:03 51.88825 0.94994 26848 ft 439 kts 68°
2026-05-06 08:03 51.89979 0.99482 27278 ft 441 kts 68°
2026-05-06 08:04 51.91159 1.04076 27756 ft 443 kts 68°
2026-05-06 08:04 51.92343 1.08691 28228 ft 446 kts 68°
2026-05-06 08:04 51.93526 1.13329 28678 ft 448 kts 68°
2026-05-06 08:04 51.94717 1.18025 29111 ft 451 kts 68°
2026-05-06 08:05 51.95910 1.22744 29544 ft 454 kts 68°
2026-05-06 08:05 51.97111 1.27491 29968 ft 457 kts 68°
2026-05-06 08:05 51.98303 1.32204 30328 ft 459 kts 68°
2026-05-06 08:05 51.99516 1.37007 30689 ft 462 kts 68°
2026-05-06 08:06 52.00737 1.41843 31065 ft 464 kts 68°
2026-05-06 08:06 52.01957 1.46674 31466 ft 465 kts 68°
2026-05-06 08:06 52.03182 1.51537 32038 ft 462 kts 68°
2026-05-06 08:06 52.04385 1.56342 32597 ft 461 kts 69°
2026-05-06 08:07 52.05582 1.61142 33149 ft 459 kts 68°
2026-05-06 08:07 52.06844 1.66219 33708 ft 458 kts 68°
2026-05-06 08:07 52.07955 1.70705 34175 ft 456 kts 68°
2026-05-06 08:07 52.09138 1.75493 34605 ft 456 kts 69°
2026-05-06 08:08 52.10283 1.80129 34973 ft 457 kts 69°
2026-05-06 08:08 52.11451 1.84863 35359 ft 457 kts 69°
2026-05-06 08:08 52.12652 1.89734 35719 ft 458 kts 68°
2026-05-06 08:08 52.13818 1.94468 36078 ft 459 kts 69°
2026-05-06 08:09 52.15004 1.99303 36424 ft 459 kts 69°
2026-05-06 08:09 52.16183 2.04121 36774 ft 460 kts 69°
2026-05-06 08:09 52.17369 2.08976 37116 ft 460 kts 69°
2026-05-06 08:09 52.18551 2.13814 37466 ft 460 kts 69°
2026-05-06 08:10 52.19735 2.18657 37785 ft 461 kts 69°
2026-05-06 08:10 52.20919 2.23535 38119 ft 462 kts 69°
2026-05-06 08:10 52.22095 2.28406 38432 ft 462 kts 69°
2026-05-06 08:10 52.23256 2.33227 38727 ft 463 kts 69°
2026-05-06 08:11 52.24435 2.38120 38896 ft 464 kts 69°
2026-05-06 08:11 52.25612 2.43013 38948 ft 464 kts 69°
2026-05-06 08:11 52.27938 2.52705 38952 ft 464 kts 69°
2026-05-06 08:12 52.30312 2.62649 38947 ft 464 kts 70°
2026-05-06 08:12 52.32193 2.72664 38948 ft 464 kts 75°
2026-05-06 08:13 52.33968 2.82794 38943 ft 464 kts 75°
2026-05-06 08:13 52.35746 2.92941 38950 ft 464 kts 75°
2026-05-06 08:14 52.37522 3.03111 38935 ft 465 kts 75°
2026-05-06 08:14 52.39320 3.13282 38935 ft 466 kts 71°
2026-05-06 08:15 52.42280 3.22650 38926 ft 468 kts 57°
2026-05-06 08:15 52.45892 3.31530 38933 ft 469 kts 57°
2026-05-06 08:16 52.49503 3.40454 38942 ft 469 kts 57°
2026-05-06 08:16 52.53093 3.49389 38940 ft 469 kts 57°
2026-05-06 08:17 52.56679 3.58361 38937 ft 470 kts 57°
2026-05-06 08:17 52.60246 3.67286 38937 ft 470 kts 57°
2026-05-06 08:18 52.63833 3.76291 38940 ft 470 kts 57°
2026-05-06 08:18 52.67412 3.85312 38940 ft 471 kts 57°
2026-05-06 08:19 52.70980 3.94346 38956 ft 471 kts 57°
2026-05-06 08:19 52.74548 4.03415 38932 ft 471 kts 58°
2026-05-06 08:20 52.78084 4.12422 38940 ft 471 kts 58°
2026-05-06 08:20 52.81639 4.21511 38944 ft 470 kts 58°
2026-05-06 08:21 52.85176 4.30607 38934 ft 470 kts 58°
2026-05-06 08:21 52.88709 4.39720 38938 ft 470 kts 58°
2026-05-06 08:22 52.92214 4.48777 38928 ft 470 kts 58°
2026-05-06 08:22 52.95739 4.57914 38929 ft 471 kts 58°
2026-05-06 08:23 52.99261 4.67090 38923 ft 471 kts 58°
2026-05-06 08:23 53.02773 4.76284 38928 ft 472 kts 58°
2026-05-06 08:24 53.06284 4.85494 38930 ft 472 kts 58°
2026-05-06 08:24 53.09768 4.94664 38932 ft 472 kts 58°
2026-05-06 08:25 53.13271 5.03911 38935 ft 472 kts 58°
2026-05-06 08:25 53.16762 5.13181 38936 ft 473 kts 58°
2026-05-06 08:26 53.20252 5.22472 38934 ft 473 kts 58°
2026-05-06 08:26 53.23736 5.31797 38937 ft 473 kts 58°
2026-05-06 08:27 53.27185 5.41033 38935 ft 473 kts 58°
2026-05-06 08:27 53.30659 5.50378 38936 ft 473 kts 58°
2026-05-06 08:28 53.34115 5.59733 38931 ft 473 kts 59°
2026-05-06 08:28 53.37572 5.69116 38906 ft 473 kts 59°
2026-05-06 08:29 53.41021 5.78502 38915 ft 473 kts 59°
2026-05-06 08:29 53.44436 5.87830 38932 ft 473 kts 59°
2026-05-06 08:30 53.47869 5.97248 38933 ft 473 kts 59°
2026-05-06 08:30 53.51295 6.06673 38929 ft 473 kts 59°
2026-05-06 08:31 53.54713 6.16126 38929 ft 473 kts 59°
2026-05-06 08:31 53.58096 6.25533 38932 ft 473 kts 60°
2026-05-06 08:32 53.61497 6.35001 38935 ft 473 kts 60°
2026-05-06 08:32 53.64895 6.44479 38935 ft 473 kts 60°
2026-05-06 08:33 53.68278 6.53975 38940 ft 473 kts 60°
2026-05-06 08:33 53.71647 6.63493 38940 ft 473 kts 60°
2026-05-06 08:34 53.76677 6.77733 38940 ft 473 kts 60°
2026-05-06 08:35 53.80037 6.87290 38943 ft 472 kts 60°
2026-05-06 08:35 53.83383 6.96845 38943 ft 472 kts 60°
2026-05-06 08:36 53.86724 7.06404 38950 ft 472 kts 60°
2026-05-06 08:36 53.90052 7.15987 38943 ft 471 kts 60°
2026-05-06 08:37 53.93364 7.25579 38953 ft 471 kts 60°
2026-05-06 08:37 53.96680 7.35190 38955 ft 471 kts 60°
2026-05-06 08:38 53.99985 7.44799 38942 ft 471 kts 60°
2026-05-06 08:38 54.03287 7.54441 38954 ft 472 kts 61°
2026-05-06 08:39 54.06552 7.64033 38950 ft 472 kts 61°
2026-05-06 08:39 54.09832 7.73704 38949 ft 472 kts 61°
2026-05-06 08:40 54.13108 7.83394 38954 ft 472 kts 61°
2026-05-06 08:40 54.16619 7.92832 38951 ft 472 kts 51°
2026-05-06 08:41 54.21124 8.01004 38945 ft 473 kts 46°
2026-05-06 08:41 54.25671 8.09119 38954 ft 473 kts 46°
2026-05-06 08:42 54.30205 8.17256 38940 ft 474 kts 46°
2026-05-06 08:42 54.34728 8.25400 38940 ft 474 kts 47°
2026-05-06 08:43 54.39268 8.33613 38944 ft 474 kts 47°
2026-05-06 08:43 54.43804 8.41843 38937 ft 474 kts 47°
2026-05-06 08:44 54.48337 8.50084 38949 ft 475 kts 46°
2026-05-06 08:44 54.52877 8.58345 38943 ft 476 kts 46°
2026-05-06 08:45 54.57417 8.66645 38934 ft 476 kts 47°
2026-05-06 08:45 54.61915 8.74917 38941 ft 476 kts 47°
2026-05-06 08:46 54.66469 8.83309 38950 ft 476 kts 47°
2026-05-06 08:46 54.70988 8.91679 38955 ft 476 kts 47°
2026-05-06 08:47 54.75510 9.00073 38947 ft 477 kts 47°
2026-05-06 08:47 54.80027 9.08470 38945 ft 477 kts 47°
2026-05-06 08:48 54.84516 9.16859 38937 ft 477 kts 47°
2026-05-06 08:48 54.89024 9.25440 38940 ft 478 kts 49°
2026-05-06 08:49 54.93406 9.34123 38945 ft 478 kts 49°
2026-05-06 08:49 54.95586 9.38501 38536 ft 481 kts 49°
2026-05-06 08:49 54.97807 9.42963 37431 ft 492 kts 50°
2026-05-06 08:49 55.00080 9.47508 36787 ft 491 kts 50°
2026-05-06 08:50 55.02334 9.51993 35994 ft 494 kts 50°
2026-05-06 08:50 55.04612 9.56519 35148 ft 498 kts 51°
2026-05-06 08:50 55.06902 9.61072 34355 ft 500 kts 51°
2026-05-06 08:50 55.09070 9.65706 33318 ft 502 kts 59°
2026-05-06 08:51 55.10816 9.70927 32691 ft 492 kts 68°
2026-05-06 08:51 55.12097 9.76439 31877 ft 486 kts 76°
2026-05-06 08:51 55.13097 9.82033 31328 ft 480 kts 76°
2026-05-06 08:51 55.14090 9.87581 30709 ft 476 kts 76°
2026-05-06 08:52 55.15075 9.93093 30092 ft 472 kts 76°
2026-05-06 08:52 55.16047 9.98537 29455 ft 467 kts 76°
2026-05-06 08:52 55.17006 10.03921 28877 ft 460 kts 76°
2026-05-06 08:52 55.17949 10.09228 28289 ft 455 kts 76°
2026-05-06 08:53 55.18875 10.14480 27707 ft 449 kts 76°
2026-05-06 08:53 55.19787 10.19682 27147 ft 444 kts 76°
2026-05-06 08:53 55.20686 10.24825 26590 ft 440 kts 76°
2026-05-06 08:53 55.21574 10.29918 26054 ft 435 kts 75°
2026-05-06 08:54 55.22448 10.34943 25527 ft 431 kts 75°
2026-05-06 08:54 55.23342 10.40097 24494 ft 440 kts 75°
2026-05-06 08:54 55.24218 10.45176 23882 ft 439 kts 75°
2026-05-06 08:54 55.25094 10.50262 23344 ft 434 kts 75°
2026-05-06 08:55 55.25972 10.55363 22788 ft 428 kts 75°
2026-05-06 08:55 55.26822 10.60320 22298 ft 423 kts 75°
2026-05-06 08:55 55.27662 10.65223 21804 ft 418 kts 74°
2026-05-06 08:55 55.28493 10.70071 21295 ft 413 kts 74°
2026-05-06 08:56 55.29317 10.74875 20782 ft 409 kts 74°
2026-05-06 08:56 55.30131 10.79632 20266 ft 405 kts 74°
2026-05-06 08:56 55.30938 10.84354 19745 ft 402 kts 74°
2026-05-06 08:56 55.31731 10.89012 19207 ft 400 kts 74°
2026-05-06 08:57 55.32541 10.93766 18665 ft 397 kts 73°
2026-05-06 08:57 55.33328 10.98395 18109 ft 394 kts 73°
2026-05-06 08:57 55.34090 11.02929 17548 ft 390 kts 74°
2026-05-06 08:57 55.34856 11.07540 17013 ft 385 kts 74°
2026-05-06 08:58 55.35597 11.12033 16483 ft 381 kts 74°
2026-05-06 08:58 55.36334 11.16491 15950 ft 377 kts 74°
2026-05-06 08:58 55.37062 11.20898 15429 ft 374 kts 74°
2026-05-06 08:58 55.37549 11.23859 15086 ft 371 kts 74°
2026-05-06 08:59 55.38251 11.28134 14576 ft 368 kts 74°
2026-05-06 08:59 55.38972 11.32538 14048 ft 364 kts 74°
2026-05-06 08:59 55.39661 11.36767 13506 ft 361 kts 74°
2026-05-06 08:59 55.40346 11.40986 12982 ft 357 kts 74°
2026-05-06 09:00 55.41024 11.45159 12474 ft 353 kts 74°
2026-05-06 09:00 55.41694 11.49289 12029 ft 347 kts 74°
2026-05-06 09:00 55.42343 11.53297 11927 ft 334 kts 74°
2026-05-06 09:00 55.42963 11.57122 11941 ft 317 kts 74°
2026-05-06 09:01 55.43563 11.60814 11685 ft 311 kts 72°
2026-05-06 09:01 55.44417 11.64295 11326 ft 309 kts 59°
2026-05-06 09:01 55.45608 11.67432 10959 ft 307 kts 54°
2026-05-06 09:01 55.46812 11.70515 10654 ft 304 kts 55°
2026-05-06 09:02 55.48007 11.73599 10306 ft 302 kts 55°
2026-05-06 09:02 55.49176 11.76629 9990 ft 299 kts 55°
2026-05-06 09:02 55.50341 11.79652 9671 ft 296 kts 55°
2026-05-06 09:02 55.51492 11.82643 9307 ft 293 kts 56°
2026-05-06 09:03 55.52376 11.85845 8887 ft 288 kts 72°
2026-05-06 09:03 55.52714 11.89292 8241 ft 284 kts 88°
2026-05-06 09:03 55.52515 11.92791 7602 ft 280 kts 98°
2026-05-06 09:03 55.52193 11.96081 6994 ft 275 kts 98°
2026-05-06 09:04 55.51876 11.99445 6440 ft 275 kts 98°
2026-05-06 09:04 55.51571 12.02704 6158 ft 270 kts 97°
2026-05-06 09:04 55.51266 12.05948 5854 ft 267 kts 98°
2026-05-06 09:04 55.50957 12.09204 5529 ft 265 kts 98°
2026-05-06 09:05 55.50651 12.12381 5250 ft 261 kts 98°
2026-05-06 09:05 55.50354 12.15451 5119 ft 251 kts 98°
2026-05-06 09:05 55.50062 12.18459 5000 ft 242 kts 98°
2026-05-06 09:05 55.49784 12.21300 4853 ft 234 kts 98°
2026-05-06 09:06 55.49506 12.24080 4726 ft 226 kts 101°
2026-05-06 09:06 55.49082 12.26720 4452 ft 223 kts 104°
2026-05-06 09:06 55.48647 12.29338 4137 ft 222 kts 104°
2026-05-06 09:06 55.48218 12.31930 4010 ft 219 kts 104°
2026-05-06 09:07 55.47792 12.34502 3996 ft 220 kts 104°
2026-05-06 09:07 55.47370 12.37033 3939 ft 210 kts 104°
2026-05-06 09:07 55.47036 12.39471 3807 ft 199 kts 90°
2026-05-06 09:07 55.47320 12.41751 3537 ft 196 kts 61°
2026-05-06 09:08 55.48278 12.43549 3209 ft 198 kts 41°
2026-05-06 09:08 55.49299 12.45098 3095 ft 189 kts 43°
2026-05-06 09:08 55.50263 12.46570 2980 ft 176 kts 42°
2026-05-06 09:08 55.51162 12.47950 2669 ft 172 kts 43°
2026-05-06 09:09 55.52059 12.49328 2286 ft 170 kts 43°
2026-05-06 09:09 55.52958 12.50708 1844 ft 169 kts 43°
2026-05-06 09:09 55.53886 12.52135 1515 ft 170 kts 43°
2026-05-06 09:09 55.54721 12.53418 1292 ft 154 kts 43°
2026-05-06 09:10 55.55493 12.54605 1067 ft 131 kts 43°
2026-05-06 09:10 55.56136 12.55597 862 ft 127 kts 41°
2026-05-06 09:10 55.56810 12.56635 694 ft 124 kts 39°
2026-05-06 09:10 55.57275 12.57352 577 ft 125 kts 41°
2026-05-06 09:11 55.58145 12.58694 360 ft 125 kts 40°
2026-05-06 09:11 55.58792 12.59692 179 ft 123 kts 40°
2026-05-06 09:11 55.59472 12.60741 21 ft 117 kts 41°
2026-05-06 09:11 55.59972 12.61501 19 ft 68 kts 41°
2026-05-06 09:12 55.60175 12.61822 19 ft 59 kts 42°
2026-05-06 09:12 55.60544 12.62305 20 ft 30 kts 13°
2026-05-06 09:12 55.60710 12.62370 18 ft 25 kts 13°
2026-05-06 09:12 55.60819 12.62450 18 ft 26 kts 36°
2026-05-06 09:13 55.60998 12.62724 17 ft 24 kts 40°
2026-05-06 09:13 55.61130 12.62930 17 ft 27 kts 40°
2026-05-06 09:13 55.61254 12.63119 18 ft 24 kts 40°
2026-05-06 09:13 55.61377 12.63308 17 ft 21 kts 41°
2026-05-06 09:14 55.61491 12.63486 17 ft 22 kts 41°
2026-05-06 09:14 55.61568 12.63605 19 ft 24 kts 41°
2026-05-06 09:14 55.61756 12.63895 19 ft 28 kts 40°
2026-05-06 09:14 55.61849 12.64038 17 ft 27 kts 41°
2026-05-06 09:15 55.61996 12.64177 17 ft 23 kts 24°
2026-05-06 09:15 55.62139 12.64296 17 ft 25 kts 26°
2026-05-06 09:15 55.62260 12.64459 16 ft 20 kts 63°
2026-05-06 09:15 55.62307 12.64645 19 ft 16 kts 66°
2026-05-06 09:16 55.62348 12.64810 19 ft 12 kts 71°
2026-05-06 09:16 55.62320 12.64950 18 ft 14 kts 122°
2026-05-06 09:16 55.62275 12.65099 17 ft 16 kts 94°
2026-05-06 09:16 55.62354 12.65204 17 ft 17 kts 359°
2026-05-06 09:17 55.62486 12.65199 17 ft 20 kts 358°
2026-05-06 09:17 55.62614 12.65195 18 ft 16 kts 359°
2026-05-06 09:17 55.62686 12.65136 17 ft 9 kts 288°
2026-05-06 09:17 55.62695 12.65089 17 ft 2 kts 289°
2026-05-06 09:18 55.62697 12.65082 17 ft 0 kts 289°